Weather in Ulyanovskoye

Russia / Republic of Kalmykia     46°17′10″N   42°15′20″E
temp.,
°C
wind,
m/s
gust,
m/s
humid.,
%
clouds,
%
prec.,
mm/h
press.,
hPa
HPBL,
m
16 may, sun
sun1600:00+20nne3378100 0.0 101132
03:00+18ese34775 0.0 101155
06:00+15ese4116353 0.0 1011222
09:00+21ese7115155 0.0 1010584
12:00+26ese81142100 0.0 10091067
15:00+29ese61239100 0.0 10071562
18:00+25ese4114969 0.0 1006216
21:00+22ese81939100 0.0 1006534
17 may, mon
mon1700:00+20e8193982 0.0 1005555
03:00+17ese5144954 0.0 1005344
06:00+16ese41365100 0.0 1006353
09:00+22se685243 0.0 1007689
12:00+26se45453 0.0 10071176
15:00+29s36403 0.0 10061558
18:00+24wnw61066100 0.0 1006369
21:00+20n478172 0.0 1007105
18 may, tue
tue1800:00+18sw237289 0.0 100753
03:00+17wnw6108766 0.0 1007339
06:00+17wnw9139073 0.1 1008689
09:00+19wnw7107493 0.1 1009796
12:00+20w787197 0.0 1009988
15:00+23wnw675896 0.1 10091663
18:00+21w476852 0.1 1010617
21:00+17w348743 0.1 101150
19 may, wed
wed1900:00+15wsw33904 0.0 101131
03:00+15w119099 0.0 101111
06:00+16wsw3888100 0.0 1012273
09:00+16w5987100 0.3 1013494
12:00+15wsw61192100 5.2 1014510
15:00+21wsw79561 6.1 10141924
18:00+18wsw69720 0.2 1015849
21:00+13sw37900 0.6 1016146
20 may, thu
thu2000:00+12sw48935 0.0 1017194
03:00+11sw410934 0.0 1018198
06:00+12sw49880 0.0 1019237
09:00+18sw45620 0.0 1019686
12:00+22sw4545100 0.0 10181448
15:00+22wnw1246100 0.0 10181077
18:00+21ne345970 0.0 1017135
21:00+16e45640 0.0 101766